This is the latest recevied weather packets stored in our database for station/object OE-11343. If no packets are shown the sender has not sent any weather packets the latest 10 day(s).
| Time | Temp. | Humidity | Pressure | Rain* | Wind** | Luminosity | Snow |
|---|---|---|---|---|---|---|---|
| 1787949325 | 6.67° C | 78% | 714.6 hPa | - | - | 0 W/m² | - |
| 1787948725 | 6.67° C | 77% | 714.5 hPa | - | - | 0 W/m² | - |
| 1787947898 | 7.22° C | 75% | 714.4 hPa | - | - | 0 W/m² | - |
| 1787947524 | 7.22° C | 77% | 714.5 hPa | - | - | 0 W/m² | - |
| 1787946925 | 7.22° C | 75% | 714.6 hPa | - | - | 0 W/m² | - |
| 1787946099 | 7.78° C | 71% | 714.6 hPa | - | - | 0 W/m² | - |
| 1787945725 | 7.78° C | 72% | 715.1 hPa | - | - | 0 W/m² | - |
| 1787945124 | 7.78° C | 71% | 714.5 hPa | - | - | 0 W/m² | - |
| 1787944298 | 7.78° C | 71% | 714.6 hPa | - | - | 0 W/m² | - |
| 1787943925 | 7.78° C | 75% | 714.8 hPa | - | - | 0 W/m² | - |
| 1787943324 | 7.78° C | 79% | 715 hPa | - | - | 0 W/m² | - |
| 1787942498 | 8.33° C | 76% | 715.3 hPa | - | - | 0 W/m² | - |
| 1787941517 | 8.33° C | 75% | 715.4 hPa | - | - | 0 W/m² | - |
| 1787940698 | 8.33° C | 74% | 714.8 hPa | - | - | 0 W/m² | - |
| 1787940324 | 8.89° C | 73% | 715.1 hPa | - | - | 10 W/m² | - |
| 1787939724 | 8.89° C | 75% | 715.2 hPa | - | - | 10 W/m² | - |
| 1787938898 | 8.89° C | 77% | 715.3 hPa | - | - | 20 W/m² | - |
| 1787938525 | 8.89° C | 77% | 715.3 hPa | - | - | 30 W/m² | - |
| 1787937925 | 8.89° C | 79% | 715.4 hPa | - | - | 40 W/m² | - |
| 1787937098 | 8.89° C | 79% | 715.8 hPa | - | - | 30 W/m² | - |
| 1787936724 | 9.44° C | 77% | 716.3 hPa | - | - | 10 W/m² | - |
| 1787936124 | 9.44° C | 75% | 715.9 hPa | - | - | 30 W/m² | - |
| 1787935298 | 9.44° C | 74% | 716.2 hPa | - | - | 40 W/m² | - |
| 1787934925 | 9.44° C | 74% | 716.2 hPa | - | - | 70 W/m² | - |
| 1787934325 | 10° C | 72% | 716.3 hPa | - | - | 90 W/m² | - |
* Rain since midnight (hover to see other rain measurements)
** Current wind speed in m/s (hover to see current wind gust speed)